GEFSCGP_500_meanwind_288.txt.gz
Wind_Speed
29 29 29 29 29 30 31 30 30 29 29 29 30 30 31 32 33 35 36 36 36 38 39 40 40 41 42 43 44 45 45 45 45 44 44 44 44 45 46 46 46 46 47 48
29 29 29 29 30 30 30 29 29 29 29 29 29 30 30 32 33 35 36 36 36 37 39 39 40 41 42 43 44 45 45 45 45 45 45 46 46 46 46 47 46 47 48 49
30 30 30 30 29 29 29 29 28 28 29 29 30 30 30 32 33 34 35 36 36 36 37 40 40 41 42 42 43 44 45 45 45 46 46 46 47 47 47 48 49 48 49 49
30 30 30 30 29 29 30 29 28 28 29 29 30 31 29 31 32 33 34 35 35 35 36 39 40 40 41 42 43 44 45 45 45 45 45 46 47 47 48 48 49 49 49 50
30 30 30 29 29 30 30 30 30 29 30 30 29 32 30 30 31 32 33 34 35 36 36 38 39 40 41 42 43 44 45 45 45 46 45 45 46 47 48 48 48 48 49 50
30 30 30 30 30 30 30 31 30 30 31 31 29 31 31 31 31 31 32 33 35 36 37 38 39 40 40 41 43 44 45 45 46 47 46 47 47 48 49 49 49 48 49 51
30 30 30 30 30 30 30 30 30 31 31 31 30 31 32 31 30 31 32 33 35 36 37 38 38 39 40 41 42 45 46 47 47 47 48 47 48 48 49 49 49 49 48 49
31 31 31 31 31 31 30 30 30 32 32 31 30 32 31 32 31 31 32 33 34 36 36 37 38 39 40 41 42 44 46 47 47 48 48 48 47 48 49 49 50 50 50 50
31 32 31 31 31 30 30 30 31 32 33 32 31 32 32 32 32 32 32 33 34 35 36 37 38 39 40 41 42 44 45 46 46 46 47 48 48 48 48 49 50 50 51 51
31 32 31 31 31 30 30 31 31 32 34 34 33 32 32 33 32 32 32 32 34 35 36 37 38 39 40 41 43 44 44 44 46 47 48 48 49 49 49 50 51 51 52 52
32 32 32 32 31 31 31 32 32 33 34 35 36 33 33 32 33 33 34 34 35 36 37 37 38 39 41 41 42 43 43 44 45 47 48 49 49 49 49 50 51 52 53 53
32 33 33 32 32 33 33 33 33 33 34 35 37 35 34 34 34 34 35 35 35 36 37 37 37 38 40 41 41 41 42 44 45 46 48 49 49 49 49 50 50 52 53 53
34 34 35 34 34 34 34 33 33 34 34 35 36 35 34 34 34 34 35 35 35 36 36 37 38 38 39 40 41 41 42 42 43 45 47 48 49 49 49 50 51 52 53 53
35 35 35 36 35 35 35 34 34 35 35 35 35 34 33 34 34 34 34 34 35 36 36 37 37 38 38 39 40 40 41 42 42 43 45 47 48 48 49 50 51 51 51 52
36 36 36 36 36 36 36 35 35 35 35 36 35 34 33 34 34 33 34 35 35 36 36 36 37 38 38 39 39 40 41 40 41 42 44 46 48 49 49 48 49 50 50 51
36 36 37 37 36 36 36 35 35 35 35 35 35 34 34 34 34 34 34 35 35 36 36 36 37 37 37 38 39 40 41 40 41 42 43 44 46 47 47 47 49 49 49 49
36 37 37 37 36 36 35 34 34 35 34 35 35 34 33 34 34 34 34 35 35 35 35 35 35 36 36 37 39 40 40 41 41 41 42 42 42 44 45 46 47 47 48 47
35 36 37 37 36 36 35 34 34 34 34 34 35 35 35 35 34 34 34 35 34 35 35 34 34 35 36 37 38 39 40 41 41 40 40 40 41 43 43 44 45 46 47 47
35 36 36 36 36 36 34 34 34 35 34 35 35 35 35 35 34 34 35 34 34 34 34 34 34 33 34 35 37 38 38 39 38 38 38 39 40 41 43 43 44 44 46 47
35 36 36 36 37 37 35 34 34 35 35 35 35 35 34 34 34 33 33 33 33 33 32 32 32 32 33 34 35 36 36 36 36 36 37 37 39 40 41 41 41 42 44 46
34 35 35 36 37 36 35 35 34 34 34 34 34 34 34 34 34 33 32 32 32 32 31 32 32 32 32 33 33 33 33 34 35 35 34 35 35 37 39 40 40 41 43 44
33 33 33 34 35 35 35 34 34 34 33 34 34 34 34 33 32 32 31 31 31 31 31 31 31 31 31 31 31 32 32 33 33 34 34 34 35 36 37 38 39 41 42 42
33 33 33 34 34 34 34 33 33 33 33 34 33 33 32 32 31 31 31 31 31 31 30 30 29 30 30 30 30 31 31 31 32 32 32 33 33 35 37 38 39 39 40 42
32 32 32 32 32 32 32 32 32 32 32 32 31 31 31 31 31 31 31 30 30 30 30 29 28 29 29 29 29 30 30 31 31 31 32 33 33 34 36 38 39 39 40 41
30 31 31 31 31 31 31 31 31 31 30 30 30 31 31 31 30 30 30 30 29 28 28 28 29 29 28 28 28 29 29 29 30 30 31 31 32 33 35 36 37 38 38 39
29 30 30 30 30 31 31 30 30 30 30 30 30 30 30 30 30 29 29 28 28 28 28 28 28 29 28 27 27 27 27 27 27 29 29 29 30 31 33 34 35 37 37 38

GEFSCGP_500_meanwind_294.txt.gz
Wind_Speed
30 30 31 31 31 31 31 32 31 32 32 32 32 31 31 32 33 33 34 35 37 37 38 39 41 42 44 45 45 45 45 46 47 46 46 45 45 45 45 45 45 44 44 43
31 31 31 31 31 31 32 32 32 32 33 33 33 31 30 32 32 33 33 35 36 36 38 39 39 40 43 45 45 45 46 46 48 47 47 47 47 46 46 46 45 45 45 45
31 31 31 31 31 31 32 33 33 33 33 33 33 32 30 31 32 32 33 35 36 37 37 38 38 39 41 43 45 46 47 47 48 48 48 48 49 48 48 47 46 46 46 46
31 31 31 31 31 32 32 33 33 33 33 32 32 33 30 31 31 32 33 34 35 35 36 37 38 39 40 41 43 45 46 47 47 48 48 49 49 49 50 49 48 47 47 47
31 30 30 31 31 32 33 33 33 33 33 33 33 34 32 31 31 31 32 32 33 34 35 37 38 40 41 41 42 44 45 46 47 48 49 49 49 49 48 49 49 48 48 49
30 30 30 31 31 32 33 34 34 34 34 34 33 34 33 32 30 31 32 33 33 33 35 37 38 40 40 41 41 43 43 45 47 48 48 49 49 48 48 50 50 49 48 48
31 31 31 32 32 33 33 34 35 35 35 35 34 34 33 33 31 32 32 33 33 35 36 37 38 39 40 42 42 42 43 44 45 46 48 48 47 48 49 50 50 50 50 49
32 32 32 32 33 33 33 33 34 36 36 35 34 33 33 33 33 34 34 33 34 36 37 38 39 39 41 42 42 42 43 45 46 47 48 48 49 48 47 48 49 49 49 49
34 33 32 33 33 33 34 33 34 36 37 37 35 34 32 33 33 34 35 35 35 35 37 38 39 40 41 41 41 42 43 44 46 47 48 49 49 50 49 48 48 48 49 50
34 34 33 33 34 34 34 34 34 35 37 38 37 36 35 34 35 35 35 35 35 35 37 38 40 41 42 42 42 42 43 44 44 45 47 49 49 50 50 50 49 49 49 50
34 35 35 35 34 34 34 34 35 36 37 38 38 36 36 36 36 37 37 37 37 37 37 38 39 40 41 42 42 42 43 43 44 45 45 47 48 50 51 51 50 50 50 50
34 36 35 35 35 35 35 35 35 36 37 37 38 37 36 37 38 38 38 37 37 37 37 39 39 41 42 42 42 43 43 43 44 45 45 45 46 48 49 50 50 50 51 51
35 35 36 36 36 36 35 35 35 36 37 37 38 37 37 38 38 39 38 38 38 38 38 39 39 40 41 42 43 42 43 43 44 45 45 46 47 47 48 49 50 50 50 51
35 36 36 36 36 36 36 35 35 36 37 38 37 37 37 38 39 38 39 40 40 40 40 40 40 41 41 42 42 42 42 43 44 45 46 47 48 49 49 49 50 50 50 51
36 37 37 37 37 37 37 36 36 36 37 38 38 37 36 38 38 38 39 40 41 42 42 42 41 42 42 43 43 43 43 43 43 44 46 47 48 49 50 50 51 51 50 50
37 37 38 38 38 39 38 38 37 38 38 38 38 38 37 38 38 38 39 40 40 41 41 41 42 43 43 44 44 43 42 42 43 44 44 45 47 48 49 50 51 51 52 50
39 39 39 39 39 40 40 39 39 39 38 39 39 38 38 38 38 38 39 40 40 40 40 40 40 41 41 41 41 42 43 42 43 44 44 44 45 47 47 49 50 51 52 54
39 39 40 40 40 40 40 39 40 40 39 39 39 39 39 39 38 38 40 40 40 40 39 39 39 39 39 40 40 41 42 42 43 42 42 42 44 46 47 47 48 50 51 53
39 39 39 39 40 41 39 39 40 39 38 38 38 38 39 39 38 38 40 40 40 39 39 39 39 38 38 38 39 39 40 41 41 41 41 41 42 43 44 46 47 48 50 51
39 39 39 39 40 41 40 39 39 40 39 38 38 38 38 38 38 38 39 40 39 39 40 39 38 38 37 37 38 38 38 39 39 40 40 40 40 41 42 43 45 46 48 49
38 38 38 39 39 39 39 39 38 39 39 38 37 37 37 38 38 39 39 39 39 39 39 39 38 37 37 36 36 36 37 37 38 39 40 40 40 40 41 42 42 44 45 46
38 38 38 38 38 38 37 38 38 38 37 37 37 37 37 37 37 38 38 38 38 38 37 37 36 36 36 35 35 35 35 36 37 38 39 39 40 40 41 41 41 42 43 43
36 37 37 37 37 36 36 37 36 36 36 36 37 37 37 36 36 36 36 36 36 36 35 35 35 35 35 35 34 34 34 35 35 36 37 38 39 39 39 39 39 40 41 42
35 36 36 36 35 35 35 35 35 35 35 35 36 36 35 36 35 35 35 35 34 34 34 34 34 34 35 35 34 34 34 34 35 36 36 36 36 36 36 36 37 38 39 40
34 35 35 35 34 34 34 35 35 35 34 34 35 35 35 35 34 34 34 34 34 34 35 35 35 35 34 34 33 34 34 34 34 34 34 34 35 35 35 35 35 36 37 37
33 34 34 34 34 34 33 34 34 34 33 34 34 34 34 34 34 34 33 33 33 34 34 34 34 34 34 33 33 34 34 34 33 33 33 34 34 34 34 34 34 35 35 35

GEFSCGP_500_meanwind_300.txt.gz
Wind_Speed
28 29 29 29 30 30 30 30 30 30 31 31 31 31 32 33 33 33 33 34 34 35 36 37 38 39 39 41 42 43 43 44 45 47 48 48 48 47 47 47 47 46 46 46
29 30 30 30 30 30 30 31 30 30 30 30 30 30 30 32 32 32 33 34 34 35 36 36 38 38 40 41 42 43 43 44 45 46 48 49 49 49 48 47 47 47 47 48
30 30 30 30 30 30 30 31 30 30 30 30 31 30 29 31 31 32 32 33 33 34 35 35 37 38 39 40 41 42 43 45 45 46 48 49 49 49 49 48 48 49 49 49
29 28 29 29 30 30 30 30 31 30 30 31 31 32 30 29 31 31 31 32 31 32 34 35 36 37 38 39 40 41 43 44 45 46 47 47 48 49 49 49 49 50 50 50
29 29 29 29 29 30 31 31 31 31 31 32 31 32 30 29 29 30 30 31 32 32 33 34 35 36 37 38 39 40 42 43 44 45 47 47 48 50 49 50 51 51 51 50
29 30 29 29 29 30 31 31 32 32 32 33 31 31 31 30 29 29 30 31 32 33 33 34 35 36 37 38 39 40 42 42 43 44 46 47 48 50 50 50 51 51 52 51
30 30 30 29 29 30 30 31 31 32 32 32 32 31 31 31 30 30 31 32 32 33 34 34 34 36 37 38 39 40 41 42 43 44 46 46 47 48 49 50 51 52 52 52
31 30 30 30 30 30 30 30 31 33 33 33 33 32 32 31 32 31 31 32 33 33 33 34 34 35 36 37 38 39 40 41 42 44 45 46 47 48 50 51 52 53 53 53
30 30 30 30 30 30 30 30 31 32 34 34 34 33 33 32 33 33 32 32 33 33 33 34 34 35 35 36 38 39 41 42 42 44 45 47 48 49 49 50 51 51 52 53
30 30 30 30 30 30 30 31 31 32 33 35 35 34 33 33 33 33 33 33 34 34 35 35 35 35 35 36 38 39 41 42 43 45 46 46 47 48 48 49 51 53 52 53
31 31 31 31 31 30 30 31 31 32 33 35 36 35 35 34 34 34 34 34 35 35 35 35 37 37 38 38 39 39 40 41 43 45 46 47 47 47 47 48 49 51 52 52
32 32 32 32 32 32 32 32 32 32 33 34 35 35 34 35 35 35 35 35 35 35 36 36 37 37 38 38 39 40 41 42 42 44 45 46 46 46 47 47 49 50 51 52
33 33 33 33 34 34 33 33 32 33 34 34 34 34 34 34 35 35 35 35 36 35 36 36 37 38 38 39 40 40 41 42 43 44 45 45 45 47 48 48 48 49 50 52
34 34 34 34 35 35 34 34 34 34 34 34 34 34 33 34 34 34 35 35 36 36 36 36 37 38 38 39 40 40 41 42 42 43 43 44 46 47 49 50 50 49 49 51
34 34 34 34 35 35 34 34 34 34 34 35 34 34 33 34 34 34 35 35 36 36 36 37 37 38 39 39 40 41 42 42 42 42 42 43 45 46 47 48 48 49 49 50
35 35 35 34 34 35 34 33 34 35 35 35 35 35 35 36 36 36 36 36 36 36 37 37 38 39 39 40 40 40 41 42 42 41 41 42 43 44 45 46 47 48 49 50
35 36 36 36 35 35 35 33 33 34 34 35 35 35 36 36 36 36 36 37 37 38 38 37 38 39 39 40 41 41 42 42 42 41 41 41 42 43 44 46 47 48 48 49
35 35 35 36 35 36 35 34 34 34 33 34 34 35 36 36 36 37 37 38 38 38 38 38 39 39 39 40 40 41 42 42 41 41 41 41 42 42 43 45 46 47 48 48
33 34 34 35 35 36 35 34 34 34 33 33 34 35 35 36 36 37 37 38 38 39 39 39 39 39 39 39 40 40 41 41 41 42 43 43 43 42 43 43 44 44 46 47
33 33 33 34 35 36 35 35 35 35 36 34 35 35 36 36 36 37 37 38 38 39 40 40 39 39 39 39 39 39 39 39 40 41 42 43 43 43 43 43 43 45 45 46
33 33 34 34 35 35 34 34 35 35 36 36 36 35 36 36 37 37 37 37 38 38 39 39 39 39 39 39 38 37 37 37 38 39 41 41 42 42 42 42 43 44 45 47
32 33 33 33 33 33 33 33 34 35 35 35 36 36 36 36 37 37 38 38 38 38 38 38 38 38 38 38 37 37 37 37 37 38 39 40 41 42 43 43 42 42 43 45
31 32 33 33 32 32 32 33 34 34 34 35 35 35 35 36 36 36 36 36 36 36 37 37 37 37 37 37 37 36 36 36 36 37 38 39 41 41 42 42 42 43 43 43
32 33 33 33 32 32 33 34 34 34 34 34 35 35 36 36 36 35 35 35 35 35 35 35 35 36 35 35 35 36 36 36 36 37 37 38 39 40 41 42 42 43 42 42
32 32 32 32 31 31 32 33 33 33 33 34 34 34 34 34 33 34 34 34 33 33 33 33 34 34 34 34 34 34 35 35 35 36 36 37 38 39 40 40 41 41 41 41
30 30 31 31 30 31 31 32 32 32 33 33 33 33 32 32 32 32 32 32 32 32 32 33 33 33 33 32 32 33 33 34 34 35 35 36 36 36 37 38 38 39 38 38

GEFSCGP_500_meanwind_306.txt.gz
Wind_Speed
29 30 30 30 31 32 32 33 33 33 33 34 33 33 32 32 33 34 34 34 35 35 37 38 39 39 39 39 41 42 43 44 44 45 45 45 45 45 45 46 46 46 46 47
30 30 30 31 31 32 32 33 33 33 33 34 34 33 32 32 33 33 33 33 34 35 36 37 38 38 38 39 40 41 43 44 44 45 46 46 45 45 46 46 46 47 48 48
30 30 31 32 32 32 32 33 33 33 33 33 35 34 32 33 34 34 33 34 34 35 36 36 37 38 38 39 39 41 43 44 44 45 46 46 45 45 46 47 47 47 48 49
32 31 31 32 32 32 33 33 33 34 34 34 34 36 34 34 34 34 33 34 34 34 35 37 37 38 39 39 40 42 43 44 44 45 46 47 46 46 47 47 48 48 49 50
32 32 32 32 32 33 33 33 34 34 35 36 34 36 34 34 34 34 34 34 35 35 36 37 37 39 39 40 41 42 42 44 44 45 46 46 47 47 47 48 48 48 49 51
33 33 33 33 32 32 33 33 33 34 35 36 34 35 36 35 35 35 35 35 35 35 36 36 37 39 40 40 41 42 43 44 44 44 45 46 47 47 48 49 49 49 50 51
32 33 33 32 32 32 31 32 33 34 35 36 35 36 36 36 35 35 35 35 35 36 37 38 38 38 39 40 40 41 42 43 43 44 44 46 47 48 48 49 50 50 51 52
33 32 32 32 31 31 31 31 32 34 35 36 36 37 36 36 35 35 35 36 36 36 36 37 38 38 39 39 40 40 41 42 43 44 45 45 46 47 48 50 51 51 51 52
34 33 33 32 32 32 31 31 32 34 35 36 36 36 36 36 36 36 36 36 36 36 35 36 37 38 39 39 40 41 41 42 43 44 45 45 45 46 47 50 51 52 52 52
34 34 33 33 33 33 32 32 32 34 36 37 37 36 36 36 36 37 37 37 37 37 37 36 37 37 38 39 40 41 41 42 43 44 45 45 45 46 47 49 51 51 52 51
34 35 34 33 33 32 33 33 34 35 36 37 38 38 37 37 37 37 37 37 37 37 38 38 38 38 39 40 41 42 42 43 44 45 45 46 46 46 47 48 49 50 51 50
33 35 35 34 34 33 34 34 35 36 37 38 39 39 38 38 38 37 38 38 38 37 38 38 39 39 39 40 41 42 42 42 43 44 46 46 47 48 48 49 50 50 50 50
34 35 36 35 35 34 34 34 35 36 38 38 39 39 38 38 38 38 38 38 38 38 39 39 39 40 40 41 41 42 42 43 44 45 45 46 47 49 49 50 50 49 49 51
35 36 36 36 36 36 36 35 36 37 38 39 39 38 37 38 37 37 38 38 39 39 40 40 40 40 41 41 42 42 43 43 43 44 45 46 46 48 48 48 48 49 49 50
36 36 36 37 37 37 37 36 36 37 37 38 38 38 38 38 38 38 38 38 38 39 40 40 41 41 42 42 42 42 42 43 43 44 45 46 46 46 46 46 47 48 49 50
36 37 37 36 37 37 37 37 38 37 37 37 38 37 37 37 38 37 37 37 38 39 40 40 40 41 42 42 41 41 41 41 42 43 44 46 45 45 45 46 47 48 48 50
36 37 37 37 37 38 38 37 37 38 37 37 37 36 36 36 36 37 37 37 38 38 38 39 39 39 40 41 41 41 41 41 42 43 44 44 44 44 44 45 46 47 48 49
35 36 37 37 37 38 38 37 37 37 36 36 36 36 35 36 37 37 37 37 38 38 38 39 39 39 39 40 40 40 41 42 42 43 43 43 44 44 44 46 46 46 47 48
35 35 36 36 38 39 37 36 36 36 36 35 35 35 36 37 37 37 37 37 37 38 38 38 38 39 38 38 39 39 40 41 41 41 42 42 42 42 43 44 44 44 45 46
36 35 35 36 37 37 36 36 36 36 36 35 35 36 37 37 38 37 37 36 37 37 37 37 37 37 37 37 38 38 39 39 40 40 40 41 41 42 42 43 44 44 44 45
35 35 35 36 37 37 35 35 35 36 36 36 36 37 37 37 37 37 37 36 36 35 35 35 36 36 37 37 38 38 39 38 39 39 39 39 40 40 42 43 43 44 44 44
35 35 35 35 36 35 33 34 34 35 36 36 36 36 36 36 37 37 37 36 36 35 35 35 36 36 37 38 38 38 38 38 38 38 39 39 39 40 41 42 43 43 43 43
35 35 35 35 35 34 33 33 34 34 34 34 35 35 36 36 36 37 37 36 36 35 36 36 36 37 37 38 38 38 37 37 37 38 38 39 39 40 40 41 42 43 44 44
34 35 35 35 33 34 33 33 33 33 34 34 33 34 34 35 35 35 35 35 35 36 36 36 37 37 37 38 38 37 37 37 37 37 38 38 39 39 40 41 41 42 42 43
33 33 34 34 33 33 33 34 35 34 34 33 32 33 34 34 34 34 35 35 35 35 36 36 36 36 36 36 36 36 36 37 37 38 38 38 38 39 39 39 40 41 42 42
30 32 32 32 32 33 33 34 35 34 33 33 33 33 33 33 34 34 35 35 35 35 35 36 35 35 35 35 34 35 35 36 37 37 37 37 37 37 38 38 38 39 40 40

GEFSCGP_500_meanwind_312.txt.gz
Wind_Speed
27 27 28 29 30 31 32 33 33 34 34 35 36 35 35 34 34 34 34 34 34 34 35 36 37 38 38 39 40 41 41 42 43 43 44 44 43 43 44 44 45 45 45 46
28 28 28 29 30 31 32 33 33 33 34 35 35 35 34 34 34 34 34 33 34 34 35 36 37 38 39 39 40 41 42 42 43 43 44 45 44 44 45 45 45 46 46 47
28 28 29 29 30 31 32 33 33 33 33 34 35 35 33 34 34 34 33 33 33 34 35 36 36 38 39 39 39 41 42 43 44 44 45 45 45 45 46 46 46 46 47 47
28 28 28 29 30 30 31 32 32 33 33 33 34 35 32 33 33 33 33 33 34 35 35 36 37 38 38 39 39 40 41 43 44 44 45 45 46 46 45 46 47 47 48 48
29 28 28 29 30 31 31 31 32 33 33 34 33 35 32 32 32 32 33 34 35 36 37 37 37 37 38 39 40 41 41 42 44 45 45 45 46 46 46 46 46 47 48 48
30 30 30 30 30 31 31 32 33 33 34 35 33 35 34 32 32 32 33 34 34 36 36 37 37 38 39 39 40 41 42 42 44 45 45 45 45 46 47 47 47 47 47 48
31 30 31 31 31 31 32 33 34 34 35 35 33 35 34 33 33 33 33 34 34 35 36 36 37 38 39 39 40 41 42 42 43 44 45 46 46 45 46 47 48 47 47 48
32 31 31 31 31 32 32 32 33 35 35 35 35 35 34 33 33 33 34 34 35 36 36 36 37 37 38 38 39 40 40 41 43 44 45 46 46 46 46 47 47 48 48 48
32 32 32 32 32 32 33 32 32 34 36 36 36 35 34 34 34 34 35 35 35 36 36 37 38 38 38 38 38 39 39 41 42 43 44 45 45 45 45 46 47 47 48 48
32 33 32 33 33 33 33 32 32 33 35 36 36 35 35 34 34 34 35 35 35 36 37 37 37 37 38 38 39 39 39 40 41 42 43 44 44 45 45 45 46 46 47 48
33 33 33 33 33 32 32 33 33 34 35 36 38 36 35 35 35 36 35 35 35 35 36 37 37 37 38 38 39 39 39 40 42 42 43 44 44 44 45 45 46 47 48 49
32 33 33 33 33 32 33 33 33 34 34 36 38 37 36 36 37 37 36 36 36 35 35 35 36 37 38 38 38 39 39 40 41 42 42 43 44 44 45 46 47 48 49 49
32 33 32 32 32 32 32 32 33 34 35 35 36 36 36 37 37 37 37 37 36 36 36 35 35 36 37 37 38 38 39 40 40 40 41 42 44 45 45 46 47 48 48 49
32 32 32 32 31 31 31 31 32 33 35 36 35 35 35 36 37 37 37 37 36 36 36 36 35 35 36 36 37 37 38 39 40 41 42 43 44 44 45 46 47 47 48 48
32 32 32 31 31 32 31 31 32 33 34 36 35 35 35 36 35 35 36 36 36 36 36 36 36 36 36 36 37 37 38 39 40 42 42 43 44 45 46 46 47 46 46 47
32 33 33 32 31 32 32 31 32 33 34 35 35 35 34 35 36 36 36 36 36 36 36 36 36 37 37 37 38 38 39 40 40 41 42 43 43 45 46 47 47 47 48 48
32 33 33 32 32 33 33 32 32 33 33 34 35 35 34 34 35 35 36 37 36 35 35 36 37 37 37 37 38 39 40 40 41 41 42 43 43 44 46 47 46 46 47 48
32 32 33 33 33 34 33 33 33 34 33 33 34 34 34 34 34 35 35 35 36 36 35 35 36 36 36 37 37 38 39 40 41 42 43 43 43 43 44 45 45 46 48 48
33 33 34 34 35 36 34 34 33 34 34 34 34 34 34 33 34 34 34 35 35 35 35 35 35 36 36 37 37 38 39 40 41 42 42 43 43 43 44 45 45 46 47 48
32 32 33 34 34 35 33 33 33 34 34 34 34 34 34 34 34 33 34 34 34 34 35 35 35 35 36 36 37 38 39 39 40 41 41 42 43 44 44 44 45 46 47 47
31 32 32 33 33 33 33 33 33 33 34 34 34 34 34 34 34 33 33 33 33 33 34 35 35 35 35 35 36 37 38 38 39 39 40 42 42 43 44 44 45 46 46 47
30 31 32 32 32 32 31 31 32 33 33 34 33 33 33 33 33 33 33 32 32 33 34 35 35 35 36 36 36 37 37 37 37 38 39 40 41 42 42 43 43 44 45 46
28 29 30 31 31 31 31 31 31 32 32 32 32 32 32 32 32 32 32 33 33 33 34 34 35 35 36 36 36 36 36 36 37 38 38 39 39 40 41 41 42 43 44 44
27 28 29 29 28 28 29 29 30 30 30 31 32 31 31 31 31 31 32 33 33 34 34 34 34 34 35 35 35 35 35 36 36 36 37 38 38 38 39 39 39 40 41 42
27 27 27 27 27 27 28 29 29 30 31 32 32 32 32 32 32 33 33 34 34 34 34 34 34 34 34 34 34 34 34 34 35 36 36 36 37 37 37 37 38 39 40 40
25 26 26 26 27 28 28 29 29 29 30 31 32 32 32 33 33 33 33 34 34 34 34 34 34 33 33 33 33 34 34 34 34 34 35 35 35 35 36 36 36 37 37 38

GEFSCGP_500_meanwind_318.txt.gz
Wind_Speed
33 33 33 32 33 34 34 35 35 35 36 38 39 38 38 38 38 37 37 38 38 38 38 39 39 39 40 40 41 41 41 41 42 43 44 44 44 44 46 46 45 46 46 46
33 33 32 33 33 34 34 35 35 36 36 38 39 39 38 38 38 37 37 38 38 39 39 39 39 40 39 40 40 40 41 42 43 44 46 45 45 45 46 47 47 47 48 48
33 32 32 33 33 34 35 35 36 37 37 38 40 40 37 37 37 37 37 37 38 38 38 38 39 39 39 40 40 40 41 42 44 46 47 47 47 47 48 48 49 49 49 49
33 33 33 33 34 35 36 36 36 37 38 38 39 40 37 37 37 37 37 37 37 37 38 38 38 38 39 40 40 40 42 43 45 47 48 48 49 49 48 49 50 51 51 51
33 33 33 34 35 35 36 36 37 37 38 39 38 40 38 37 37 36 36 36 37 37 38 38 38 38 39 40 41 42 43 44 46 47 48 49 50 51 50 50 51 51 51 51
33 34 34 34 35 36 36 37 37 38 39 40 38 39 38 37 37 36 36 36 36 37 38 38 39 39 40 40 41 42 44 45 46 47 49 50 51 51 51 51 51 52 52 52
33 34 35 35 35 35 36 36 38 39 40 40 38 39 39 37 37 37 37 37 37 37 38 38 39 40 40 41 42 43 44 44 45 46 48 49 50 51 51 52 52 52 53 53
34 34 34 35 36 36 36 36 37 39 40 40 39 39 38 36 36 36 37 37 37 37 38 39 40 40 41 41 42 43 43 44 45 46 47 48 49 50 51 52 52 52 52 52
35 35 35 35 35 35 35 36 36 38 39 40 40 39 38 37 36 37 37 37 37 38 38 39 40 41 41 41 42 42 43 43 44 44 45 47 46 47 48 49 49 50 50 51
35 36 35 34 35 34 35 35 36 37 37 39 40 38 38 37 37 37 37 37 38 39 39 40 40 41 41 41 42 42 42 42 43 43 44 44 44 45 46 47 48 49 49 50
36 37 36 35 34 34 35 35 35 37 38 39 40 38 37 38 38 38 38 38 39 39 40 40 40 40 41 41 41 42 41 42 42 43 43 42 44 45 45 47 47 48 48 49
35 36 36 35 35 34 34 34 35 36 37 38 40 39 38 38 39 39 39 39 39 39 39 39 39 39 40 40 40 40 41 41 41 42 43 42 43 44 45 46 47 47 48 49
35 36 36 35 35 34 33 33 34 35 37 38 38 38 38 38 39 38 38 38 38 39 39 39 39 39 39 40 40 40 40 40 41 41 41 42 42 42 43 44 46 47 48 48
35 36 36 36 35 35 34 34 33 35 36 37 37 37 36 38 38 37 37 37 37 38 38 38 39 39 40 40 40 40 41 41 41 41 41 43 43 42 42 43 45 47 48 48
35 36 35 35 35 35 35 35 35 36 36 38 38 38 36 36 36 36 36 36 37 37 37 38 38 38 38 39 39 39 40 40 40 41 41 42 43 43 43 44 46 47 48 49
35 36 36 35 34 36 36 35 36 37 37 38 38 37 35 36 36 35 35 35 35 35 36 36 37 36 36 37 37 38 39 39 40 40 42 43 44 44 44 45 45 45 47 48
35 36 37 36 35 36 36 35 36 36 36 37 37 35 35 35 35 35 35 35 35 34 34 34 34 35 35 36 36 37 38 39 40 40 42 43 43 44 45 45 45 46 46 48
35 35 37 37 36 37 35 35 35 35 35 35 36 35 35 35 35 35 35 35 35 34 34 33 33 34 34 35 36 37 37 38 40 41 41 42 43 43 43 44 46 46 47 48
34 34 36 37 37 37 34 34 35 35 34 34 35 35 36 36 35 35 35 35 34 34 33 33 33 33 34 34 35 36 37 38 38 40 41 41 42 43 44 44 45 46 46 47
32 33 35 35 36 36 34 34 35 35 35 35 36 36 36 36 35 35 35 35 34 34 33 34 34 33 34 34 35 35 37 38 38 39 40 40 41 42 42 43 44 44 45 45
32 32 33 34 35 35 34 34 34 35 35 35 36 36 36 35 35 34 34 34 34 34 34 34 34 34 34 35 35 36 37 38 38 38 38 39 40 41 41 42 42 43 44 45
31 32 32 33 34 34 34 34 34 35 35 35 35 35 35 35 34 34 34 34 34 34 35 35 35 35 35 35 36 37 37 37 38 37 38 38 39 41 41 41 42 43 44 44
29 29 30 31 31 31 31 32 33 34 34 34 34 34 34 34 35 35 35 35 35 35 35 36 36 36 36 37 37 37 37 37 37 38 38 39 39 40 40 41 42 42 43 43
29 29 30 30 29 30 30 30 31 32 32 32 32 32 33 33 34 34 35 35 35 35 35 36 36 36 36 36 36 37 37 37 38 38 39 39 39 40 41 41 41 41 41 41
29 29 29 29 28 29 29 29 30 30 31 31 31 32 32 32 33 33 33 34 34 34 34 34 35 35 36 36 36 36 36 36 37 38 37 37 38 39 39 39 39 39 39 39
28 29 30 30 29 29 28 29 30 30 31 31 31 32 32 32 32 32 32 32 32 32 33 34 35 35 35 35 35 35 35 35 35 35 34 35 35 36 36 36 36 37 38 38

GEFSCGP_500_meanwind_324.txt.gz
Wind_Speed
32 33 33 33 34 34 35 36 37 37 37 38 39 38 38 38 38 38 38 38 37 38 38 39 39 39 39 40 40 41 41 42 42 43 44 44 44 44 44 44 44 46 46 46
32 33 32 33 33 34 35 35 36 37 37 39 39 39 38 38 38 38 39 39 38 39 39 39 38 39 39 40 41 41 41 42 43 44 44 45 45 46 46 46 46 47 47 47
32 32 32 33 33 34 35 36 36 37 38 38 39 39 38 38 38 38 39 39 39 39 39 39 40 39 39 40 41 41 42 42 43 44 45 45 46 46 46 47 48 48 48 49
31 31 32 32 33 34 34 35 36 37 38 38 38 40 38 38 38 38 38 38 39 39 39 39 40 40 40 40 40 41 41 42 43 43 44 45 46 47 47 47 48 49 50 50
31 31 32 32 33 33 34 34 35 36 37 39 38 39 38 37 37 37 37 38 38 38 38 39 40 39 40 40 40 41 41 42 43 44 44 45 46 46 47 48 49 50 50 51
32 32 33 33 33 34 35 35 36 36 36 38 36 38 38 37 36 36 37 37 37 37 38 38 39 39 39 40 41 41 42 42 43 43 44 45 45 46 47 48 49 49 50 51
32 33 33 34 34 35 35 35 35 36 36 37 35 36 37 36 35 35 35 36 36 37 37 38 38 39 39 40 40 41 41 41 42 43 44 44 45 46 46 47 48 49 50 51
32 32 32 33 33 34 33 34 34 35 37 37 35 36 35 34 35 35 34 35 35 36 37 37 37 38 39 39 40 41 42 42 43 43 43 44 45 45 46 46 48 49 50 51
33 33 32 32 31 32 32 33 33 35 37 37 37 36 35 34 34 34 34 35 35 35 36 36 37 38 38 39 40 41 42 43 43 44 44 44 45 45 45 46 47 48 49 50
33 33 32 32 32 32 33 33 33 33 35 36 37 36 34 34 34 34 35 35 35 35 36 37 37 38 39 40 41 41 42 43 44 45 44 44 44 44 44 45 46 48 49 50
32 32 32 31 32 32 32 32 33 34 35 36 36 35 35 34 35 35 35 35 35 36 36 37 38 39 40 41 42 42 43 43 44 44 44 44 44 44 45 45 46 47 48 49
31 31 31 31 31 31 31 32 32 33 33 35 36 36 35 36 36 36 35 35 35 36 37 37 38 39 40 41 41 42 42 43 43 43 43 43 44 44 44 45 46 47 47 47
30 31 31 30 30 30 30 30 31 33 34 35 35 35 34 35 35 35 35 35 36 36 37 37 38 38 39 40 41 42 42 42 42 42 42 43 44 43 44 45 45 45 46 47
31 31 30 30 30 31 31 30 31 33 34 35 36 35 33 35 35 35 35 35 36 36 37 37 37 38 39 40 40 41 42 42 42 42 42 43 43 44 44 44 45 45 46 47
32 32 31 30 30 31 31 31 31 32 33 35 35 35 33 34 35 35 35 35 35 35 36 37 38 38 39 39 39 40 40 41 41 41 42 43 43 43 44 45 45 46 46 46
33 33 33 31 30 31 32 31 31 32 32 33 34 34 34 34 35 35 36 35 35 36 36 37 37 37 37 37 37 37 38 39 40 41 42 43 43 44 44 45 46 46 46 46
33 33 33 33 31 32 32 30 30 31 31 32 32 32 33 33 34 34 35 36 36 36 36 36 36 36 36 36 36 36 36 37 38 40 42 43 43 43 44 44 45 46 47 48
33 33 33 33 32 32 31 30 29 30 30 31 31 32 33 33 33 34 34 35 36 36 35 35 35 35 35 35 35 35 36 36 37 39 40 41 42 42 43 44 45 46 47 47
31 31 31 32 32 33 30 30 30 30 30 30 31 32 32 33 33 34 35 35 34 34 33 33 33 33 33 34 35 35 36 36 36 37 38 39 41 42 42 44 45 45 46 47
29 29 30 31 32 32 31 30 31 31 31 31 31 31 32 32 33 33 34 34 33 32 32 33 32 32 33 33 34 34 35 36 36 37 38 38 39 40 42 43 44 44 46 47
28 29 29 29 31 31 31 31 31 31 31 31 31 31 32 32 32 32 33 32 32 32 32 32 33 33 33 34 34 34 34 35 35 36 37 38 39 40 40 41 42 43 44 46
28 28 28 28 29 29 28 29 30 30 31 30 30 30 31 32 32 32 32 32 32 32 32 32 32 33 33 33 34 34 35 35 36 36 37 38 39 40 40 41 42 42 43 44
27 27 27 28 28 28 28 28 28 29 29 29 29 29 30 31 31 32 32 32 32 32 32 32 33 33 33 33 34 35 35 36 36 37 37 38 38 39 39 40 41 42 42 43
26 26 27 28 28 28 28 28 28 28 29 28 29 29 30 30 30 31 32 32 33 33 33 33 34 34 34 35 35 35 35 35 36 37 37 37 38 38 39 39 40 40 41 41
26 27 28 28 27 28 27 27 28 28 28 28 29 29 30 30 31 32 32 32 32 33 33 33 34 34 35 35 35 34 34 35 35 36 37 37 38 38 38 39 39 39 39 40
25 26 26 26 25 26 25 26 27 28 28 28 28 28 29 30 31 31 31 31 31 31 31 32 32 32 33 33 33 34 34 34 35 35 36 36 36 37 38 38 39 39 39 40

GEFSCGP_500_meanwind_330.txt.gz
Wind_Speed
33 34 34 34 35 36 37 38 38 38 38 40 41 41 40 40 41 41 40 40 39 40 40 40 40 40 40 40 40 41 42 42 43 44 45 45 45 46 46 46 46 45 45 45
34 35 34 34 35 36 37 38 38 38 38 40 41 41 41 41 41 41 41 40 40 40 40 41 41 41 41 41 41 42 42 43 43 44 45 46 47 47 47 47 47 46 46 45
34 34 34 35 36 36 37 38 38 38 39 40 42 42 41 40 41 41 41 41 41 41 41 41 42 42 42 42 42 42 42 43 44 44 45 46 47 47 47 47 48 48 47 47
34 34 34 35 36 37 38 37 38 38 40 40 41 43 40 40 40 41 41 41 41 41 41 41 41 42 42 42 42 42 42 43 44 44 45 45 46 47 47 48 49 49 48 48
35 35 35 36 36 37 38 38 38 38 39 40 39 41 40 39 39 39 40 40 40 40 41 40 40 41 41 41 42 42 43 43 43 44 45 46 47 47 48 49 49 49 49 49
35 35 36 36 35 35 36 37 37 37 38 40 37 39 40 38 38 38 39 40 40 40 40 40 41 41 41 42 42 42 43 43 44 44 45 46 47 47 48 48 48 48 48 48
33 34 35 35 36 35 35 36 37 38 39 39 38 39 40 38 37 37 38 39 40 40 40 41 41 41 41 42 42 43 43 43 44 45 45 45 46 46 46 47 47 46 47 47
34 34 34 35 35 35 35 35 36 37 39 39 39 39 38 37 37 38 38 39 40 40 41 41 41 42 42 42 43 43 43 44 44 44 44 45 45 45 45 46 45 46 47 47
35 35 34 34 34 34 35 35 35 37 38 39 40 40 39 38 38 38 38 39 40 40 40 40 40 40 41 42 43 43 44 44 44 45 45 45 45 45 45 45 45 45 46 47
35 35 34 34 34 34 35 35 34 34 36 38 39 39 39 39 38 38 38 39 39 40 40 40 40 40 41 42 43 43 44 44 44 45 45 46 46 46 45 45 46 46 46 47
34 35 35 35 34 34 34 34 34 35 35 37 38 38 37 38 38 38 38 39 39 39 40 40 40 40 41 42 43 43 43 44 44 44 45 45 45 46 47 46 46 47 47 48
33 34 35 34 34 33 33 33 34 34 35 36 38 39 36 36 37 38 38 39 39 39 39 39 40 41 41 41 42 42 43 43 44 44 44 45 46 47 48 48 48 48 48 49
33 33 34 33 33 33 33 32 33 34 35 36 36 37 35 36 36 37 38 38 38 38 38 39 40 41 41 41 41 42 42 42 43 44 45 45 46 47 48 48 49 49 49 50
33 34 34 33 33 34 33 33 33 33 34 35 36 36 35 36 37 37 38 38 38 38 38 39 39 39 40 40 40 41 42 42 43 44 44 45 46 46 47 47 48 49 50 50
34 35 34 34 35 36 35 34 33 34 34 34 34 35 34 35 37 37 38 38 38 38 37 37 37 38 39 39 39 40 41 42 42 43 43 44 45 45 46 46 47 48 49 49
34 35 35 34 34 35 35 35 34 34 33 34 35 34 34 35 35 36 36 37 36 37 36 36 36 36 37 38 39 39 40 41 41 41 42 43 43 44 45 46 47 47 47 47
34 35 34 33 32 33 33 32 32 32 33 34 35 35 35 36 36 36 36 36 35 35 35 35 35 35 36 36 37 39 40 40 40 40 41 41 42 42 44 45 46 46 46 48
33 32 33 33 33 33 32 32 31 32 33 34 34 35 36 35 35 36 35 35 35 35 35 35 36 36 37 37 38 38 38 39 39 40 39 40 41 42 42 43 44 45 47 48
31 31 31 31 32 32 31 31 32 32 31 31 33 33 34 34 34 34 35 35 36 36 36 36 36 36 36 37 37 37 37 37 37 38 38 39 39 40 41 42 43 44 45 46
30 30 30 30 31 31 31 31 31 32 32 32 33 34 34 34 34 33 34 35 35 36 36 36 36 36 36 36 36 35 35 36 36 37 37 39 39 39 40 41 42 43 43 44
29 29 30 30 31 31 31 30 30 31 32 32 33 33 33 33 34 34 34 35 36 37 37 37 37 37 37 36 36 35 35 36 37 37 37 39 39 40 40 41 41 42 43 43
29 29 29 30 31 31 31 31 31 31 32 32 33 33 33 33 33 33 33 34 34 35 36 36 37 37 37 36 36 36 36 36 37 37 38 39 39 40 40 41 41 42 42 43
28 29 30 30 30 31 31 31 31 32 32 31 31 32 32 32 32 32 32 32 33 33 34 35 35 35 35 35 35 36 36 37 37 37 38 38 38 39 40 40 41 42 42 43
28 29 30 31 31 32 32 32 32 32 32 32 31 31 31 30 30 30 30 31 32 32 33 34 34 34 34 34 34 35 36 36 36 36 36 36 37 38 39 40 40 41 42 42
27 28 29 30 30 31 31 32 32 32 32 31 31 31 30 30 29 29 30 30 31 32 32 32 33 33 33 33 34 34 35 35 35 35 35 36 37 38 38 38 39 39 39 40
26 27 28 29 28 29 29 30 31 31 30 30 30 30 30 30 30 31 31 31 31 31 31 32 32 32 32 32 33 33 33 33 34 34 34 35 35 36 37 37 37 37 38 39

GEFSCGP_500_meanwind_336.txt.gz
Wind_Speed
32 32 32 32 32 33 34 35 35 35 36 37 38 38 37 38 39 39 40 40 41 41 42 42 42 42 42 41 42 42 42 42 43 43 43 44 44 45 45 46 46 46 46 45
33 33 31 32 32 34 34 35 36 36 37 38 38 39 38 38 39 39 40 41 41 42 43 43 43 43 42 42 43 43 43 43 44 44 44 45 45 46 46 46 46 47 47 47
33 33 32 33 33 34 35 36 36 36 37 39 40 40 38 38 38 39 40 40 40 41 42 42 43 43 42 43 43 43 43 44 44 45 45 45 46 47 47 47 47 48 49 49
34 33 33 33 34 34 35 35 36 37 38 38 40 42 39 39 39 39 39 39 40 40 41 42 42 43 43 43 43 43 43 44 45 45 46 46 46 47 47 48 48 49 49 49
33 33 33 34 34 34 35 35 36 37 38 40 40 42 40 40 39 39 39 39 39 40 41 42 42 43 43 43 43 43 43 43 44 45 45 46 46 46 47 47 48 48 48 49
32 32 33 33 34 34 35 35 36 37 38 40 39 41 41 39 39 38 39 40 40 40 41 41 42 43 44 43 43 43 43 43 44 45 45 45 46 46 46 46 46 47 48 48
32 32 32 32 33 33 34 34 35 36 37 39 37 39 39 38 37 37 38 38 40 40 40 41 41 42 43 43 43 43 43 43 44 44 44 45 45 45 46 46 46 46 46 47
33 32 32 32 33 33 33 33 34 35 36 37 36 37 37 36 36 36 37 37 38 39 39 40 40 41 42 42 43 43 43 43 43 43 43 44 44 45 46 46 46 46 46 47
33 33 32 32 32 33 33 33 34 35 36 37 36 36 36 35 35 36 36 37 37 38 39 39 40 40 41 42 43 43 43 43 42 43 43 44 44 45 46 46 46 47 47 47
32 32 31 31 32 33 33 33 33 35 36 37 37 36 35 34 34 35 36 37 37 38 38 39 39 40 41 41 43 43 44 44 43 44 44 45 46 46 47 48 47 47 47 47
32 33 32 32 31 32 32 33 33 34 35 36 37 36 34 34 34 34 35 36 37 38 38 39 39 40 40 41 42 43 44 45 45 45 45 46 46 47 47 48 48 48 48 48
31 33 33 32 32 32 32 32 33 34 35 37 38 38 36 35 34 35 35 36 36 37 37 38 39 40 40 41 42 43 44 46 46 46 46 46 46 47 47 48 48 49 49 49
31 31 32 32 32 32 32 32 32 34 35 36 37 37 35 35 35 36 36 36 37 37 37 38 39 40 41 41 42 43 44 44 45 45 47 47 47 47 48 49 50 50 50 50
31 31 32 32 31 32 32 31 31 32 33 34 34 34 33 35 36 36 36 36 37 37 37 37 38 39 39 40 41 42 43 44 44 45 46 46 46 46 47 48 49 50 51 51
32 32 32 32 32 33 32 31 31 32 32 33 32 34 34 34 35 36 35 35 35 36 35 36 37 37 38 39 40 41 42 43 43 44 44 45 46 46 46 47 48 50 51 51
30 31 31 30 30 31 32 31 31 31 31 32 32 32 32 33 34 34 34 34 35 35 35 35 36 36 36 37 38 38 40 41 42 42 42 43 44 44 45 46 47 48 49 50
29 29 30 29 29 30 29 28 30 32 32 32 31 30 31 32 33 34 34 34 33 34 34 34 34 35 35 36 36 37 38 39 40 40 41 42 43 44 45 45 46 47 48 49
28 28 29 30 29 29 27 27 28 29 30 31 31 30 30 31 32 33 33 33 33 34 34 35 36 36 36 36 37 38 38 38 38 39 40 41 42 43 44 44 45 45 46 48
28 28 28 29 30 29 26 27 27 29 29 29 30 30 30 30 30 30 31 32 33 33 33 34 35 35 36 36 37 37 37 37 38 38 38 39 40 40 40 41 42 43 44 45
26 27 27 28 29 29 27 27 28 28 28 28 29 29 30 30 30 30 30 31 32 32 32 33 34 34 34 35 35 36 36 36 37 38 38 38 38 38 38 39 40 41 42 43
25 26 27 28 28 28 27 28 28 29 28 28 29 30 30 30 30 30 30 30 31 32 32 32 33 32 32 32 33 34 34 35 36 37 37 37 37 37 38 39 40 41 41 42
25 25 26 27 27 27 28 28 28 29 29 29 30 30 30 30 29 29 30 30 31 31 31 32 32 31 31 32 32 33 34 34 35 35 36 36 37 37 38 39 40 41 42 42
25 25 25 26 26 27 27 27 28 28 29 30 30 30 31 30 30 29 29 30 30 31 31 31 32 31 32 32 33 33 34 34 34 35 36 37 37 38 39 39 40 40 41 42
25 25 25 25 25 26 26 27 28 29 30 30 30 30 30 31 31 31 31 31 31 31 31 31 31 31 31 32 32 32 33 33 34 34 36 37 38 39 39 40 41 41 42 42
23 24 24 24 24 25 25 26 26 27 28 29 30 30 30 30 31 31 31 31 31 31 31 31 31 30 31 31 32 32 32 32 33 34 35 36 36 37 38 39 40 41 42 42
22 23 24 24 24 25 25 26 26 27 27 28 29 29 29 30 29 29 30 30 31 31 30 30 30 30 31 31 31 31 31 32 32 33 33 33 34 35 37 38 38 39 39 40

GEFSCGP_500_meanwind_342.txt.gz
Wind_Speed
36 37 37 37 37 38 38 38 38 38 39 39 39 40 39 40 41 41 41 42 42 42 43 44 43 43 43 43 43 43 43 43 43 42 43 43 44 44 45 45 45 44 44 44
36 37 37 37 37 38 38 39 38 38 38 39 40 40 40 40 40 41 41 42 42 43 43 44 44 44 44 44 45 44 44 44 44 44 44 44 45 45 44 45 46 46 46 46
37 36 36 37 38 38 39 39 39 39 39 40 41 40 40 40 40 40 41 41 42 42 43 43 44 44 45 46 46 46 46 46 45 45 45 45 45 45 45 45 46 47 47 47
36 36 37 37 37 38 38 38 39 39 40 41 41 42 39 39 40 40 40 41 41 42 42 43 44 44 45 46 47 47 47 47 47 46 46 46 45 45 46 46 46 47 48 48
36 36 37 37 37 37 37 37 38 39 40 41 41 43 41 40 40 41 41 41 41 42 42 43 43 44 45 46 47 47 47 47 47 47 47 47 46 46 47 47 47 47 48 48
35 36 36 36 36 36 37 38 38 39 40 41 40 42 42 40 40 40 41 41 42 42 43 43 44 45 45 46 47 47 47 47 47 47 47 48 48 48 48 48 48 48 48 48
34 35 35 35 35 35 36 37 38 39 40 41 39 41 41 40 39 39 40 41 41 41 42 42 44 45 45 46 46 46 47 47 47 47 47 48 48 48 48 48 48 48 48 48
35 35 34 34 35 35 35 36 37 38 40 40 40 41 40 40 40 40 40 40 41 41 42 42 43 44 45 45 46 46 47 47 47 48 48 48 49 49 48 49 49 49 48 48
34 35 35 35 34 34 35 36 36 37 39 40 40 40 39 38 39 40 39 39 40 40 41 42 43 44 44 45 46 46 46 47 48 48 48 49 49 50 50 49 50 49 49 48
34 35 34 34 33 34 35 35 35 36 38 38 38 38 38 37 38 38 39 39 39 39 40 41 42 42 43 44 45 46 46 47 48 48 48 48 49 50 49 49 50 51 50 50
34 35 34 34 34 33 34 35 36 37 38 38 39 37 36 35 36 36 37 38 39 40 40 41 42 42 43 43 44 44 45 46 47 47 47 48 49 50 50 49 50 51 51 51
33 34 34 34 34 34 34 34 35 36 37 38 39 39 36 35 35 36 36 37 38 39 40 40 41 42 42 43 43 44 44 45 46 47 47 48 48 49 49 49 50 50 51 51
33 34 34 34 34 34 34 33 35 36 36 37 38 38 37 36 36 37 37 38 38 38 39 39 40 42 43 43 44 44 44 44 45 45 46 47 47 48 48 49 49 50 50 51
32 33 33 33 34 34 34 33 33 34 35 36 36 36 36 37 38 38 38 38 38 38 38 38 38 40 42 42 43 43 43 43 44 44 44 45 46 47 48 49 49 49 49 51
31 32 32 32 32 33 33 33 33 33 34 35 34 35 35 37 38 39 39 39 38 38 37 37 37 38 39 40 41 42 42 43 43 43 44 45 46 47 47 49 49 49 50 51
31 32 31 30 31 32 32 32 32 33 33 34 34 34 34 36 37 39 39 39 39 38 37 37 38 38 39 39 40 40 40 41 42 43 44 45 45 46 46 47 48 49 49 50
30 31 31 31 30 31 31 30 31 32 33 34 35 35 35 36 37 37 37 37 37 37 37 37 36 36 36 37 38 38 38 39 39 41 42 42 43 44 45 45 46 47 47 48
28 29 30 30 30 31 29 29 30 31 32 34 35 35 36 36 36 36 36 36 36 36 37 37 36 35 35 35 36 36 37 37 38 38 39 40 41 42 42 43 44 45 46 47
27 28 28 29 30 30 29 29 30 31 31 32 33 34 35 35 36 36 36 36 35 35 35 36 36 36 36 36 36 35 35 36 37 38 38 39 40 41 41 42 42 43 44 45
26 26 27 29 30 30 29 29 29 30 30 30 31 32 33 34 35 35 35 36 35 35 35 34 35 36 37 37 37 36 36 36 37 37 38 39 40 41 41 41 42 43 43 43
27 27 27 28 29 29 29 28 29 29 30 29 30 31 31 32 32 33 34 35 35 35 35 35 35 35 35 36 36 37 37 37 37 37 38 38 39 39 40 41 41 42 42 43
29 29 28 28 29 29 29 29 29 29 29 30 30 31 31 32 32 32 33 33 33 34 35 35 35 35 35 35 35 36 36 37 36 36 37 38 39 39 39 40 40 40 42 42
28 28 28 28 28 29 28 29 29 29 30 30 31 31 32 32 32 32 31 32 32 33 34 34 34 34 35 35 35 35 35 36 36 36 36 37 38 38 38 38 38 39 40 41
27 28 28 28 28 29 29 30 30 29 29 30 31 31 31 31 31 31 31 32 32 32 32 33 33 33 33 34 34 34 34 34 34 34 35 36 36 36 36 36 37 38 39 40
26 27 27 28 28 28 29 30 30 30 30 30 30 30 30 30 31 32 32 32 32 31 31 32 32 32 32 32 33 33 34 34 34 35 35 35 35 36 36 36 36 37 38 39
26 26 27 28 29 30 29 30 31 31 30 30 30 30 30 30 31 31 31 31 31 31 31 31 31 31 32 32 33 33 33 34 34 34 34 35 35 35 35 36 36 37 37 38